�N����,����,�~����,�C��,���x,�C��,����,���ϕ���,�ő�u�ԕ���,�ő厞����,���˗�,�I�_���x,�n�����x,�ő啗���N��,DTYPE
"20/05/19","00:10",0.0,17.9,95.1,995.8,326.4,0.6,1.4,332.8,0.00,17.1,19.2,"00:06:08",1
"20/05/19","00:20",0.0,17.9,95.2,995.3,75.6,0.6,2.1,20.9,0.00,17.2,19.2,"00:10:56",1
"20/05/19","00:30",0.0,17.8,95.2,995.1,129.7,0.6,1.8,115.8,0.00,17.1,19.2,"00:20:24",1
"20/05/19","00:40",0.0,17.8,95.3,995.3,288.0,0.6,0.9,138.6,0.00,17.1,19.3,"00:30:48",1
"20/05/19","00:50",0.0,17.7,95.4,994.8,79.0,0.6,1.9,74.6,0.00,17.0,19.1,"00:49:12",1
"20/05/19","01:00",0.0,17.6,95.5,994.6,101.0,0.8,2.4,103.8,0.00,16.9,19.1,"00:51:12",1
"20/05/19","01:10",0.0,17.6,95.6,994.6,308.2,0.7,1.3,158.9,0.00,16.9,19.0,"01:01:52",1
"20/05/19","01:20",0.0,17.5,95.6,994.1,239.3,1.1,1.8,239.3,0.00,16.8,19.1,"01:18:08",1
"20/05/19","01:30",0.0,17.5,95.7,993.9,287.0,0.8,1.4,328.1,0.00,16.8,19.0,"01:20:02",1
"20/05/19","01:40",0.0,17.6,95.7,993.9,301.3,1.1,2.1,333.7,0.00,16.9,18.9,"01:34:40",1
"20/05/19","01:50",0.0,17.5,95.8,994.1,306.0,1.1,1.8,262.5,0.00,16.9,18.9,"01:41:04",1
"20/05/19","02:00",0.0,17.6,95.8,993.4,325.0,1.5,2.4,335.2,0.00,17.0,19.0,"01:54:08",1
"20/05/19","02:10",0.0,17.6,95.9,993.7,309.6,0.8,1.8,314.8,0.00,17.0,19.0,"02:00:32",1
"20/05/19","02:20",0.0,17.5,95.9,993.7,317.1,0.6,1.4,321.1,0.00,16.9,19.0,"02:19:04",1
"20/05/19","02:30",0.0,17.6,96.0,993.7,276.7,0.8,1.7,276.2,0.00,17.0,18.9,"02:29:36",1
"20/05/19","02:40",0.0,17.5,96.0,993.4,295.9,0.5,1.0,258.3,0.00,16.9,18.9,"02:30:08",1
"20/05/19","02:50",0.0,17.6,96.0,993.4,283.2,0.7,1.1,254.8,0.00,17.0,18.8,"02:49:28",1
"20/05/19","03:00",0.2,17.5,96.0,993.2,307.1,0.6,1.3,255.8,0.00,16.9,18.8,"02:51:20",1
"20/05/19","03:10",0.0,17.5,96.1,993.2,319.7,0.7,1.3,352.2,0.00,16.9,18.7,"03:03:44",1
"20/05/19","03:20",0.0,17.5,96.1,993.0,328.4,0.8,1.8,351.7,0.00,16.9,18.9,"03:14:16",1
"20/05/19","03:30",0.0,17.4,96.2,992.2,289.0,0.6,0.8,344.9,0.00,16.8,18.8,"03:24:48",1
"20/05/19","03:40",0.0,17.5,96.2,992.2,259.6,0.6,1.2,248.8,0.00,16.9,18.9,"03:33:12",1
"20/05/19","03:50",0.0,17.5,96.2,992.5,263.1,0.6,1.1,258.7,0.00,16.9,18.9,"03:42:40",1
"20/05/19","04:00",0.0,17.6,96.3,992.2,272.6,0.6,1.4,258.5,0.00,17.0,18.7,"03:57:12",1
"20/05/19","04:10",0.0,17.6,96.3,992.2,306.7,0.2,0.8,300.7,0.00,17.0,18.8,"04:02:40",1
"20/05/19","04:20",0.0,17.6,96.3,992.0,337.1,0.2,0.6,304.7,0.00,17.0,18.9,"04:16:08",1
"20/05/19","04:30",0.0,17.6,96.3,991.8,254.5,0.5,0.9,349.6,0.00,17.0,18.7,"04:20:24",1
"20/05/19","04:40",0.0,17.7,96.4,992.0,288.8,0.6,1.3,297.0,0.00,17.2,18.6,"04:34:56",1
"20/05/19","04:50",0.0,17.7,96.4,991.8,350.1,0.6,1.2,350.6,0.00,17.2,18.8,"04:42:40",1
"20/05/19","05:00",0.0,17.7,96.4,991.5,314.1,0.5,1.1,341.7,0.00,17.2,18.7,"04:50:16",1
"20/05/19","05:10",0.0,17.8,96.4,991.8,282.9,0.5,0.8,334.5,0.00,17.3,18.7,"05:02:24",1
"20/05/19","05:20",0.0,17.8,96.5,991.3,310.2,0.5,0.8,341.7,0.00,17.3,18.8,"05:14:16",1
"20/05/19","05:30",0.0,17.8,96.5,991.5,263.3,0.5,0.9,267.9,0.00,17.3,18.7,"05:20:40",1
"20/05/19","05:40",0.0,17.9,96.5,992.0,294.7,0.6,1.3,233.6,0.00,17.4,18.7,"05:38:16",1
"20/05/19","05:50",0.0,18.0,96.5,992.0,293.0,0.7,1.3,262.7,0.00,17.5,18.7,"05:40:32",1
"20/05/19","06:00",0.0,18.0,96.5,991.8,294.3,0.2,0.9,242.1,0.00,17.5,18.7,"05:57:20",1
"20/05/19","06:10",0.0,18.2,96.6,991.8,299.3,0.3,0.8,299.3,0.01,17.7,18.6,"06:05:12",1
"20/05/19","06:20",0.0,18.3,96.5,991.8,359.2,0.1,0.8,343.8,0.00,17.8,18.7,"06:10:48",1
"20/05/19","06:30",0.0,18.2,96.5,992.0,156.2,0.1,0.4,123.5,0.00,17.7,18.7,"06:20:24",1
"20/05/19","06:40",0.0,18.4,96.6,992.2,225.5,0.2,0.5,232.5,0.02,17.9,18.7,"06:31:44",1
"20/05/19","06:50",0.0,18.5,96.5,991.8,227.2,0.2,0.6,226.3,0.04,18.0,18.6,"06:48:32",1
"20/05/19","07:00",0.0,18.7,96.5,992.5,216.7,0.1,0.6,200.2,0.04,18.2,18.8,"06:55:52",1
"20/05/19","07:10",0.0,18.6,96.5,992.2,220.8,0.3,1.0,181.4,0.03,18.1,18.9,"07:08:40",1
"20/05/19","07:20",0.0,18.6,96.6,992.5,203.5,0.6,1.2,220.9,0.05,18.1,19.0,"07:13:28",1
"20/05/19","07:30",0.0,18.8,96.5,992.2,187.7,0.5,1.6,230.1,0.06,18.3,18.9,"07:27:44",1
"20/05/19","07:40",0.0,18.8,96.5,992.5,195.0,0.6,1.0,224.4,0.05,18.3,19.1,"07:31:28",1
"20/05/19","07:50",0.0,19.2,96.5,992.5,150.2,0.5,1.0,147.7,0.11,18.7,19.0,"07:42:40",1
"20/05/19","08:00",0.0,19.2,96.2,992.2,199.0,0.6,1.6,231.6,0.09,18.6,19.2,"07:57:20",1
"20/05/19","08:10",0.0,19.1,96.2,992.5,198.2,0.6,1.4,200.5,0.04,18.5,19.1,"08:06:32",1
"20/05/19","08:20",0.0,19.2,96.4,992.5,223.3,0.6,1.3,206.7,0.06,18.7,18.9,"08:13:04",1
"20/05/19","08:30",0.0,19.5,96.2,992.7,178.3,0.2,1.3,227.8,0.12,18.9,19.3,"08:20:02",1
"20/05/19","08:40",0.0,19.6,96.2,992.2,217.1,0.2,1.1,229.3,0.08,19.0,19.3,"08:30:08",1
"20/05/19","08:50",0.0,19.9,96.2,992.2,263.9,0.2,0.8,330.2,0.07,19.3,19.4,"08:49:28",1
"20/05/19","09:00",0.0,19.8,96.2,992.7,349.2,0.2,0.9,124.3,0.06,19.2,19.3,"08:56:00",1
"20/05/19","09:10",0.0,19.4,95.8,992.7,204.7,0.8,1.7,231.0,0.06,18.8,19.5,"09:05:12",1
"20/05/19","09:20",0.0,19.4,96.0,992.5,200.3,0.7,1.2,213.4,0.07,18.8,19.7,"09:11:52",1
"20/05/19","09:30",0.0,19.4,95.9,992.5,202.0,0.8,1.6,216.6,0.09,18.8,19.5,"09:21:52",1
"20/05/19","09:40",0.0,19.7,95.9,992.7,173.3,0.6,1.1,120.1,0.10,19.1,19.6,"09:38:08",1
"20/05/19","09:50",0.0,19.4,95.8,992.7,173.8,1.0,1.8,155.5,0.07,18.8,19.6,"09:43:28",1
"20/05/19","10:00",0.0,19.6,95.9,992.7,163.7,0.8,1.6,180.2,0.07,19.0,19.6,"09:54:48",1
"20/05/19","10:10",0.0,19.6,95.9,992.2,152.4,0.8,1.7,134.8,0.06,19.0,19.9,"10:07:28",1
"20/05/19","10:20",0.0,19.7,95.9,992.5,146.2,0.7,1.7,131.5,0.09,19.1,19.9,"10:10:56",1
"20/05/19","10:30",0.0,20.0,95.8,992.2,124.7,0.7,2.1,120.6,0.15,19.3,19.9,"10:22:24",1
"20/05/19","10:40",0.0,20.2,95.6,992.2,106.9,0.7,1.8,114.4,0.13,19.5,19.9,"10:32:50",1
"20/05/19","10:50",0.0,20.2,95.2,992.2,179.6,0.7,1.4,187.5,0.10,19.4,19.8,"10:46:08",1
"20/05/19","11:00",0.0,20.4,95.3,992.5,213.3,0.6,1.6,229.1,0.11,19.7,19.9,"10:57:44",1
"20/05/19","11:10",0.0,21.0,95.3,992.0,333.2,0.3,0.9,350.8,0.12,20.3,20.2,"11:03:44",1
"20/05/19","11:20",0.0,20.9,95.1,992.0,348.6,0.5,1.2,343.6,0.09,20.1,20.3,"11:12:24",1
"20/05/19","11:30",0.0,20.7,94.9,992.0,324.2,0.6,1.2,350.5,0.09,19.9,20.2,"11:24:40",1
"20/05/19","11:40",0.0,20.7,94.9,992.0,352.7,0.6,1.7,354.9,0.06,19.9,20.2,"11:36:48",1
"20/05/19","11:50",0.0,20.8,94.7,991.8,4.9,0.5,1.1,348.9,0.10,20.0,20.2,"11:44:08",1
"20/05/19","12:00",0.0,21.0,94.5,992.0,351.5,0.6,1.2,342.5,0.09,20.1,20.5,"11:56:48",1
"20/05/19","12:10",0.0,21.7,94.6,992.0,4.9,0.8,1.8,349.8,0.33,20.8,20.3,"12:08:00",1
"20/05/19","12:20",0.0,22.8,94.1,991.8,9.6,0.7,2.2,17.3,0.54,21.8,20.6,"12:10:24",1
"20/05/19","12:30",0.0,23.0,92.6,991.3,115.9,1.1,2.1,119.2,0.60,21.8,20.8,"12:26:24",1
"20/05/19","12:40",0.0,23.4,91.0,991.1,2.1,0.7,2.0,21.3,0.44,21.9,21.1,"12:30:32",1
"20/05/19","12:50",0.0,24.6,88.6,991.3,23.1,0.6,1.8,347.2,0.61,22.6,21.3,"12:47:36",1
"20/05/19","13:00",0.0,25.4,84.0,990.8,52.1,0.7,2.0,4.6,0.55,22.5,21.3,"12:59:20",1
"20/05/19","13:10",0.0,25.6,79.3,990.4,58.6,0.8,2.1,47.4,0.39,21.8,21.5,"13:09:20",1
"20/05/19","13:20",0.0,26.2,75.9,989.9,48.2,1.0,2.4,0.7,0.39,21.7,21.8,"13:19:04",1
"20/05/19","13:30",0.0,26.3,72.5,989.2,46.0,0.8,2.2,16.7,0.41,21.0,21.8,"13:22:00",1
"20/05/19","13:40",0.0,26.0,70.7,989.4,115.6,0.8,2.7,130.7,0.16,20.3,22.0,"13:34:24",1
"20/05/19","13:50",0.0,25.8,71.2,988.7,265.4,0.8,2.7,215.5,0.09,20.2,22.2,"13:47:52",1
"20/05/19","14:00",0.0,25.4,72.3,989.6,210.1,1.1,3.4,234.1,0.05,20.1,22.2,"13:58:40",1
"20/05/19","14:10",0.0,25.6,73.8,989.2,238.9,1.1,2.1,232.2,0.11,20.6,22.2,"14:05:12",1
"20/05/19","14:20",0.0,25.3,73.2,989.2,240.6,2.3,6.2,224.3,0.09,20.2,22.2,"14:18:56",1
"20/05/19","14:30",0.0,25.0,73.3,989.9,237.3,3.2,5.5,232.8,0.05,19.9,22.2,"14:26:24",1
"20/05/19","14:40",0.0,24.5,76.5,989.9,234.2,2.5,4.8,241.6,0.10,20.1,22.1,"14:30:40",1
"20/05/19","14:50",0.0,24.2,77.7,990.1,260.5,1.6,3.7,215.6,0.17,20.1,22.1,"14:40:40",1
"20/05/19","15:00",0.0,24.4,76.6,990.4,291.4,2.1,4.7,321.7,0.36,20.1,22.1,"14:58:24",1
"20/05/19","15:10",0.0,24.3,72.3,990.6,281.6,2.0,5.4,340.8,0.23,19.0,22.1,"15:06:08",1
"20/05/19","15:20",0.0,24.6,65.1,990.8,274.9,2.2,3.7,332.6,0.34,17.7,22.3,"15:19:28",1
"20/05/19","15:30",0.0,23.9,57.7,991.1,263.5,2.8,6.2,308.9,0.19,15.1,22.1,"15:22:40",1
"20/05/19","15:40",0.0,23.3,49.6,990.8,265.6,3.1,6.7,339.4,0.09,12.2,22.2,"15:31:28",1
"20/05/19","15:50",0.0,23.4,44.7,991.1,268.5,2.6,5.4,246.8,0.13,10.7,21.8,"15:49:36",1
"20/05/19","16:00",0.0,23.9,43.3,991.3,260.6,2.0,5.8,312.8,0.25,10.7,21.9,"15:59:12",1
"20/05/19","16:10",0.0,25.2,39.7,991.1,268.9,1.7,3.9,301.9,0.37,10.6,21.9,"16:05:12",1
"20/05/19","16:20",0.0,25.0,36.7,991.3,249.6,2.2,4.9,233.3,0.29,9.2,22.0,"16:17:12",1
"20/05/19","16:30",0.0,24.9,35.9,990.8,247.1,2.1,4.4,328.6,0.23,8.8,21.8,"16:28:08",1
"20/05/19","16:40",0.0,24.1,37.8,991.1,248.9,2.0,4.4,231.6,0.08,8.9,21.8,"16:34:24",1
"20/05/19","16:50",0.0,24.3,34.8,990.8,257.8,2.3,6.0,231.7,0.21,7.8,21.8,"16:41:36",1
"20/05/19","17:00",0.0,23.5,36.1,991.1,246.7,2.5,5.0,216.6,0.08,7.7,21.8,"16:57:12",1
"20/05/19","17:10",0.0,23.5,38.6,991.1,238.5,1.5,2.7,221.2,0.07,8.6,21.6,"17:05:44",1
"20/05/19","17:20",0.0,23.4,37.6,991.3,250.3,1.7,3.1,233.2,0.07,8.2,21.6,"17:10:40",1
"20/05/19","17:30",0.0,22.8,41.2,991.5,244.8,1.6,3.9,233.2,0.04,9.0,21.5,"17:22:40",1
"20/05/19","17:40",0.0,22.5,41.5,991.5,275.1,1.0,4.0,237.6,0.02,8.8,21.4,"17:30:08",1
"20/05/19","17:50",0.0,22.3,43.3,992.0,313.9,1.0,1.7,352.9,0.00,9.3,21.4,"17:43:28",1
"20/05/19","18:00",0.0,22.0,45.4,991.8,274.6,1.3,3.3,212.4,0.00,9.7,21.3,"17:57:36",1
"20/05/19","18:10",0.0,21.7,46.9,992.0,249.6,2.2,4.9,265.1,0.00,9.9,21.1,"18:05:44",1
"20/05/19","18:20",0.0,21.4,48.5,992.5,256.1,1.5,2.7,332.1,0.00,10.1,20.9,"18:13:12",1
"20/05/19","18:30",0.0,21.3,50.3,992.7,247.5,1.3,3.4,234.5,0.00,10.6,21.0,"18:24:24",1
"20/05/19","18:40",0.0,21.0,52.4,993.0,208.3,1.5,3.9,212.8,0.00,10.9,20.8,"18:33:20",1
"20/05/19","18:50",0.0,20.7,57.3,992.7,300.8,0.6,1.4,345.0,0.00,12.0,20.8,"18:41:44",1
"20/05/19","19:00",0.0,19.8,62.5,993.0,318.8,1.2,2.4,330.2,0.00,12.5,20.7,"18:52:56",1
"20/05/19","19:10",0.0,19.5,63.7,993.2,250.7,1.0,1.7,229.5,0.00,12.5,20.5,"19:07:52",1
"20/05/19","19:20",0.0,19.4,64.5,993.4,266.5,0.7,1.2,240.1,0.00,12.6,20.5,"19:10:24",1
"20/05/19","19:30",0.0,19.1,65.8,993.9,304.9,1.0,1.4,298.2,0.00,12.6,20.6,"19:21:36",1
"20/05/19","19:40",0.0,19.0,67.6,994.1,290.4,1.1,2.1,338.1,0.00,12.9,20.4,"19:35:36",1
"20/05/19","19:50",0.0,18.6,69.0,994.1,280.1,1.0,1.8,317.5,0.00,12.8,20.2,"19:41:36",1
"20/05/19","20:00",0.0,18.3,70.2,994.4,316.4,1.3,2.8,331.9,0.00,12.8,20.2,"19:53:20",1
"20/05/19","20:10",0.0,18.1,71.5,994.4,303.6,1.0,1.9,331.0,0.00,12.9,20.2,"20:00:32",1
"20/05/19","20:20",0.0,18.0,73.2,994.8,303.0,1.5,2.5,317.9,0.00,13.2,20.3,"20:17:28",1
"20/05/19","20:30",0.0,17.8,74.8,994.8,276.9,1.1,1.8,320.8,0.00,13.3,20.0,"20:20:08",1
"20/05/19","20:40",0.0,17.6,75.5,994.8,277.5,1.1,1.7,290.2,0.00,13.3,19.9,"20:30:16",1
"20/05/19","20:50",0.0,17.5,76.1,994.8,294.3,1.0,1.4,300.2,0.00,13.3,20.1,"20:47:12",1
"20/05/19","21:00",0.0,17.5,77.5,995.3,310.9,1.5,2.7,330.2,0.00,13.6,20.1,"20:51:36",1
"20/05/19","21:10",0.0,17.3,78.9,995.3,302.8,1.3,2.2,314.9,0.00,13.6,19.7,"21:06:08",1
"20/05/19","21:20",0.0,17.3,79.8,995.6,315.6,0.8,1.8,316.1,0.00,13.8,19.7,"21:12:40",1
"20/05/19","21:30",0.0,17.2,80.6,995.8,266.2,1.0,1.6,270.2,0.00,13.9,19.6,"21:26:00",1
"20/05/19","21:40",0.0,16.9,81.2,996.0,286.7,1.0,1.4,321.6,0.00,13.7,19.5,"21:32:24",1
"20/05/19","21:50",0.0,16.6,81.7,996.0,291.2,1.0,1.7,268.7,0.00,13.5,19.5,"21:42:08",1
"20/05/19","22:00",0.0,16.4,82.5,996.0,296.9,1.0,2.0,303.8,0.00,13.5,19.4,"21:59:36",1
"20/05/19","22:10",0.0,16.2,83.3,996.3,326.7,1.0,3.3,341.7,0.00,13.4,19.2,"22:01:44",1
"20/05/19","22:20",0.0,15.7,84.0,995.8,290.3,0.7,1.7,271.2,0.00,13.0,19.2,"22:10:08",1
"20/05/19","22:30",0.0,15.5,84.9,996.0,323.9,0.6,1.8,313.3,0.00,13.0,19.2,"22:26:48",1
"20/05/19","22:40",0.0,15.3,85.7,996.0,304.0,1.1,2.1,321.0,0.00,13.0,19.1,"22:39:36",1
"20/05/19","22:50",0.0,15.2,86.5,996.3,317.3,1.7,2.7,320.7,0.00,13.0,19.1,"22:41:44",1
"20/05/19","23:00",0.0,15.0,87.2,996.5,302.7,1.2,1.8,334.8,0.00,12.9,19.0,"22:50:32",1
"20/05/19","23:10",0.0,14.8,87.8,996.3,281.5,0.8,1.3,265.5,0.00,12.8,18.7,"23:07:04",1
"20/05/19","23:20",0.0,14.6,88.2,996.3,287.7,1.0,2.0,268.4,0.00,12.7,18.9,"23:17:20",1
"20/05/19","23:30",0.0,14.5,88.7,996.3,295.5,1.1,1.6,262.9,0.00,12.7,18.7,"23:22:48",1
"20/05/19","23:40",0.0,14.5,89.1,996.3,299.3,1.1,1.8,335.7,0.00,12.8,18.6,"23:34:32",1
"20/05/19","23:50",0.0,14.3,89.5,996.3,308.2,0.8,1.8,322.5,0.00,12.6,18.4,"23:41:44",1
"20/05/19","24:00",0.0,14.1,89.8,996.3,305.9,0.8,1.3,318.6,0.00,12.5,18.7,"23:52:48",1
